Flag for United Kingdom Weather past 2 weeks in St Helens, England, United Kingdom

Now
34 °F

Passing clouds.


Feels Like: 34 °F
Forecast: N/A
Wind: 1 mph from North

Location: Liverpool Airport

Current Time: Feb 1, 2015 at 7:57:40 PM

Latest Report: Feb 1, 2015 at 7:20 PM


Visibility: N/A

Pressure: 29.71 "Hg

Humidity: 65%

Dew point: 23 °F

Location of St HelensLocation

Historic Weather in St Helens — Graph

°F

St Helens temperature yesterday

Maximum temperature yesterday: 43 °F (at 3:20 AM)
Minimum temperature yesterday: 37 °F (at 4:20 AM)
Average temperature yesterday: 41 °F

Past Weeks' High & Low Weather Summary

 TemperatureHumidityPressure
High50 °F (Jan 25, 12:50 PM)100% (Jan 18, 12:20 AM)30.42 "Hg (Jan 18, 12:20 AM)
Low30 °F (Jan 18, 8:20 AM)53% (Feb 1, 12:50 PM)28.74 "Hg (Jan 30, 12:50 AM)
Average39 °F84%29.78 "Hg
* Reported Jan 17 6:20 PM — Feb 1 6:50 PM, St Helens, Weather by CustomWeather, © 2014

Note: Actual official high and low records may vary slightly from our data, if they occured in-between our weather recording intervals... More about our weather records

Advertising

St Helens weather history for previous 24 hours

 ConditionsComfort  
Time TempWeatherWind HumidityBarometerVisibility
6:50 PM
Feb 1
34 °FPassing clouds.6 mph65%29.71 "HgN/A
6:20 PM36 °FPassing clouds.9 mph60%29.71 "HgN/A
5:50 PM37 °FPassing clouds.12 mph56%29.71 "HgN/A
5:20 PM36 °FPassing clouds.8 mph60%29.68 "HgN/A
4:50 PM37 °FPassing clouds.10 mph56%29.68 "HgN/A
4:20 PM37 °FPassing clouds.13 mph56%29.68 "HgN/A
3:50 PM39 °FPassing clouds.12 mph56%29.68 "HgN/A
3:20 PM39 °FPassing clouds.16 mph56%29.68 "HgN/A
2:50 PM39 °FPassing clouds.16 mph56%29.68 "HgN/A
2:20 PM39 °FPassing clouds.16 mph56%29.68 "HgN/A
1:50 PM41 °FPassing clouds.16 mph53%29.65 "HgN/A
1:20 PM41 °FPassing clouds.16 mph53%29.65 "HgN/A
12:50 PM41 °FPassing clouds.16 mph53%29.65 "HgN/A
12:20 PM41 °FPassing clouds.16 mph57%29.65 "HgN/A
11:50 AM39 °FPassing clouds.20 mph61%29.65 "HgN/A
11:20 AM39 °FPassing clouds.21 mph61%29.65 "HgN/A
10:50 AM41 °FPassing clouds.21 mph61%29.65 "HgN/A
10:20 AM39 °FPassing clouds.18 mph65%29.62 "HgN/A
9:50 AM39 °FScattered clouds.21 mph65%29.62 "HgN/A
9:20 AM39 °FScattered clouds.20 mph61%29.62 "HgN/A
8:50 AM39 °FPartly sunny.22 mph61%29.62 "HgN/A
8:20 AM39 °FPartly sunny.21 mph65%29.59 "HgN/A
7:50 AM39 °FPassing clouds.22 mph65%29.59 "HgN/A
7:20 AM39 °FPassing clouds.25 mph65%29.56 "HgN/A
6:50 AM39 °FPassing clouds.25 mph65%29.56 "HgN/A
6:20 AM39 °FPassing clouds.24 mph65%29.53 "HgN/A
5:50 AM39 °FPassing clouds.23 mph70%29.50 "HgN/A
5:20 AM39 °FPassing clouds.25 mph70%29.50 "HgN/A
4:50 AM39 °FSprinkles. Passing clouds.23 mph75%29.50 "Hg6 mi
4:20 AM39 °FSprinkles. Passing clouds.24 mph75%29.47 "Hg6 mi
3:50 AM39 °FSprinkles. Partly cloudy.29 mph75%29.47 "Hg6 mi
3:20 AM39 °FRain showers. Partly cloudy.25 mph75%29.47 "Hg6 mi
2:50 AM39 °FSprinkles. Passing clouds.24 mph70%29.45 "HgN/A
2:20 AM41 °FClear.23 mph66%29.45 "Hg10 mi
1:50 AM41 °FPassing clouds.23 mph66%29.45 "HgN/A
1:20 AM41 °FClear.28 mph66%29.45 "Hg10 mi
12:50 AM41 °FClear.23 mph61%29.42 "Hg10 mi
12:20 AM41 °FClear.24 mph66%29.42 "Hg10 mi
11:50 PM
Jan 31
39 °FClear.28 mph65%29.42 "Hg10 mi
11:20 PM39 °FClear.25 mph70%29.42 "Hg10 mi
10:50 PM39 °FClear.24 mph65%29.42 "Hg10 mi
10:20 PM39 °FClear.23 mph70%29.42 "Hg10 mi
9:50 PM41 °FClear.21 mph66%29.42 "Hg10 mi
9:20 PM39 °FClear.24 mph65%29.42 "Hg10 mi
8:50 PM39 °FClear.24 mph65%29.42 "Hg10 mi
8:20 PM39 °FPassing clouds.23 mph65%29.42 "HgN/A
7:50 PM39 °FPassing clouds.21 mph70%29.39 "HgN/A
7:20 PM41 °FPassing clouds.22 mph66%29.39 "HgN/A
Weather by CustomWeather, © 2014

See weather overviewHow to use our weather pages